www.cux-wetter.de
Wetterdaten: Sonntag, 07.03.2010
Datum Zeit Temp. A. Feuchte A. Luftdruck Regen Wind Richtung Richtung Sonnenschein Solar Taupunkt Windchill Windben
07.03.2010 00:04 -1,3 C 64 % 1032,5 hPa 0,0 l/m 1,0 km/h (0 Bft) NO 55 0 min 0 W/m -7,2 C -1,3 C 1,0 km/h (0 Bft)
07.03.2010 00:09 -1,4 C 64 % 1032,5 hPa 0,0 l/m 0,1 km/h (0 Bft) NO 55 0 min 0 W/m -7,3 C -1,4 C 0,1 km/h (0 Bft)
07.03.2010 00:14 -1,4 C 64 % 1032,5 hPa 0,0 l/m 0,6 km/h (0 Bft) NO 55 0 min 0 W/m -7,3 C -1,4 C 0,6 km/h (0 Bft)
07.03.2010 00:19 -1,4 C 64 % 1032,5 hPa 0,0 l/m 5,0 km/h (1 Bft) NO 50 0 min 0 W/m -7,3 C -1,4 C 5,0 km/h (1 Bft)
07.03.2010 00:24 -1,4 C 64 % 1032,5 hPa 0,0 l/m 2,1 km/h (1 Bft) NO 55 0 min 0 W/m -7,3 C -1,4 C 2,1 km/h (1 Bft)
07.03.2010 00:30 -1,4 C 64 % 1032,5 hPa 0,0 l/m 0,5 km/h (0 Bft) NO 55 0 min 0 W/m -7,3 C -1,4 C 0,5 km/h (0 Bft)
07.03.2010 00:35 -1,4 C 64 % 1032,5 hPa 0,0 l/m 0,3 km/h (0 Bft) NO 55 0 min 0 W/m -7,3 C -1,4 C 0,3 km/h (0 Bft)
07.03.2010 00:39 -1,4 C 64 % 1032,5 hPa 0,0 l/m 0,3 km/h (0 Bft) NO 55 0 min 0 W/m -7,3 C -1,4 C 0,3 km/h (0 Bft)
07.03.2010 00:44 -1,4 C 65 % 1032,5 hPa 0,0 l/m 0,0 km/h (0 Bft) NO 55 0 min 0 W/m -7,1 C -1,4 C 0,0 km/h (0 Bft)
07.03.2010 00:49 -1,5 C 65 % 1032,5 hPa 0,0 l/m 0,4 km/h (0 Bft) NO 55 0 min 0 W/m -7,2 C -1,5 C 0,4 km/h (0 Bft)
07.03.2010 00:54 -1,5 C 65 % 1032,5 hPa 0,0 l/m 0,0 km/h (0 Bft) NO 55 0 min 0 W/m -7,2 C -1,5 C 0,0 km/h (0 Bft)
07.03.2010 00:59 -1,5 C 65 % 1032,5 hPa 0,0 l/m 0,0 km/h (0 Bft) NO 55 0 min 0 W/m -7,2 C -1,5 C 0,0 km/h (0 Bft)
07.03.2010 01:04 -1,5 C 65 % 1032,5 hPa 0,0 l/m 0,0 km/h (0 Bft) NO 50 0 min 0 W/m -7,2 C -1,5 C 0,0 km/h (0 Bft)
07.03.2010 01:09 -1,5 C 65 % 1032,5 hPa 0,0 l/m 0,0 km/h (0 Bft) NO 50 0 min 0 W/m -7,2 C -1,5 C 0,0 km/h (0 Bft)
07.03.2010 01:14 -1,6 C 65 % 1032,5 hPa 0,0 l/m 0,0 km/h (0 Bft) NO 50 0 min 0 W/m -7,3 C -1,6 C 0,0 km/h (0 Bft)
07.03.2010 01:19 -1,7 C 65 % 1032,5 hPa 0,0 l/m 0,0 km/h (0 Bft) NO 50 0 min 0 W/m -7,4 C -1,7 C 0,0 km/h (0 Bft)
07.03.2010 01:25 -1,8 C 65 % 1032,5 hPa 0,0 l/m 0,0 km/h (0 Bft) NO 50 0 min 0 W/m -7,5 C -1,8 C 0,0 km/h (0 Bft)
07.03.2010 01:30 -1,8 C 65 % 1032,5 hPa 0,0 l/m 0,0 km/h (0 Bft) NO 50 0 min 0 W/m -7,5 C -1,8 C 0,0 km/h (0 Bft)
07.03.2010 01:35 -1,8 C 65 % 1032,5 hPa 0,0 l/m 0,0 km/h (0 Bft) NO 50 0 min 0 W/m -7,5 C -1,8 C 0,0 km/h (0 Bft)
07.03.2010 01:39 -1,8 C 65 % 1032,5 hPa 0,0 l/m 0,0 km/h (0 Bft) NO 50 0 min 0 W/m -7,5 C -1,8 C 0,0 km/h (0 Bft)
07.03.2010 01:44 -1,9 C 65 % 1032,5 hPa 0,0 l/m 0,0 km/h (0 Bft) NO 50 0 min 0 W/m -7,6 C -1,9 C 0,0 km/h (0 Bft)
07.03.2010 01:49 -2,0 C 65 % 1032,5 hPa 0,0 l/m 0,0 km/h (0 Bft) NO 50 0 min 0 W/m -7,7 C -2,0 C 0,0 km/h (0 Bft)
07.03.2010 01:54 -2,0 C 66 % 1033,5 hPa 0,0 l/m 0,0 km/h (0 Bft) NO 50 0 min 0 W/m -7,5 C -2,0 C 0,0 km/h (0 Bft)
07.03.2010 01:59 -2,1 C 66 % 1033,5 hPa 0,0 l/m 0,0 km/h (0 Bft) NO 50 0 min 0 W/m -7,6 C -2,1 C 0,0 km/h (0 Bft)
07.03.2010 02:04 -2,2 C 66 % 1033,5 hPa 0,0 l/m 0,0 km/h (0 Bft) NO 50 0 min 0 W/m -7,7 C -2,2 C 0,0 km/h (0 Bft)
07.03.2010 02:09 -2,2 C 66 % 1033,5 hPa 0,0 l/m 0,0 km/h (0 Bft) NO 50 0 min 0 W/m -7,7 C -2,2 C 0,0 km/h (0 Bft)
07.03.2010 02:14 -2,2 C 66 % 1033,5 hPa 0,0 l/m 0,0 km/h (0 Bft) NO 50 0 min 0 W/m -7,7 C -2,2 C 0,0 km/h (0 Bft)
07.03.2010 02:19 -2,3 C 66 % 1033,5 hPa 0,0 l/m 0,0 km/h (0 Bft) NO 50 0 min 0 W/m -7,8 C -2,3 C 0,0 km/h (0 Bft)
07.03.2010 02:25 -2,3 C 66 % 1033,5 hPa 0,0 l/m 0,0 km/h (0 Bft) NO 50 0 min 0 W/m -7,8 C -2,3 C 0,0 km/h (0 Bft)
07.03.2010 02:30 -2,4 C 66 % 1033,5 hPa 0,0 l/m 0,0 km/h (0 Bft) NO 50 0 min 0 W/m -7,9 C -2,4 C 0,0 km/h (0 Bft)
07.03.2010 02:35 -2,4 C 66 % 1033,5 hPa 0,0 l/m 0,0 km/h (0 Bft) NO 50 0 min 0 W/m -7,9 C -2,4 C 0,0 km/h (0 Bft)
07.03.2010 02:39 -2,4 C 66 % 1032,5 hPa 0,0 l/m 0,0 km/h (0 Bft) NO 50 0 min 0 W/m -7,9 C -2,4 C 0,0 km/h (0 Bft)
07.03.2010 02:44 -2,5 C 66 % 1032,5 hPa 0,0 l/m 0,4 km/h (0 Bft) NO 50 0 min 0 W/m -8,0 C -2,5 C 0,4 km/h (0 Bft)
07.03.2010 02:49 -2,5 C 66 % 1032,5 hPa 0,0 l/m 0,1 km/h (0 Bft) NO 50 0 min 0 W/m -8,0 C -2,5 C 0,1 km/h (0 Bft)
07.03.2010 02:54 -2,5 C 66 % 1032,5 hPa 0,0 l/m 0,4 km/h (0 Bft) NO 50 0 min 0 W/m -8,0 C -2,5 C 0,4 km/h (0 Bft)
07.03.2010 02:59 -2,5 C 67 % 1032,5 hPa 0,0 l/m 0,1 km/h (0 Bft) NO 50 0 min 0 W/m -7,8 C -2,5 C 0,1 km/h (0 Bft)
07.03.2010 03:04 -2,5 C 67 % 1033,5 hPa 0,0 l/m 0,2 km/h (0 Bft) NO 50 0 min 0 W/m -7,8 C -2,5 C 0,2 km/h (0 Bft)
07.03.2010 03:10 -2,6 C 66 % 1033,5 hPa 0,0 l/m 0,0 km/h (0 Bft) NO 50 0 min 0 W/m -8,1 C -2,6 C 0,0 km/h (0 Bft)
07.03.2010 03:15 -2,7 C 66 % 1033,5 hPa 0,0 l/m 0,0 km/h (0 Bft) NO 50 0 min 0 W/m -8,1 C -2,7 C 0,0 km/h (0 Bft)
07.03.2010 03:19 -2,7 C 66 % 1033,5 hPa 0,0 l/m 0,0 km/h (0 Bft) NO 50 0 min 0 W/m -8,1 C -2,7 C 0,0 km/h (0 Bft)
07.03.2010 03:24 -2,8 C 66 % 1033,5 hPa 0,0 l/m 0,0 km/h (0 Bft) NO 50 0 min 0 W/m -8,2 C -2,8 C 0,0 km/h (0 Bft)
07.03.2010 03:29 -2,9 C 66 % 1033,5 hPa 0,0 l/m 0,0 km/h (0 Bft) NO 50 0 min 0 W/m -8,3 C -2,9 C 0,0 km/h (0 Bft)
07.03.2010 03:34 -2,9 C 66 % 1033,5 hPa 0,0 l/m 0,0 km/h (0 Bft) NO 50 0 min 0 W/m -8,3 C -2,9 C 0,0 km/h (0 Bft)
07.03.2010 03:40 -3,0 C 65 % 1032,5 hPa 0,0 l/m 0,0 km/h (0 Bft) NO 50 0 min 0 W/m -8,6 C -3,0 C 0,0 km/h (0 Bft)
07.03.2010 03:45 -3,0 C 65 % 1032,5 hPa 0,0 l/m 0,0 km/h (0 Bft) NO 50 0 min 0 W/m -8,6 C -3,0 C 0,0 km/h (0 Bft)
07.03.2010 03:50 -3,2 C 65 % 1032,5 hPa 0,0 l/m 0,4 km/h (0 Bft) NO 50 0 min 0 W/m -8,8 C -3,2 C 0,4 km/h (0 Bft)
07.03.2010 03:54 -3,3 C 65 % 1032,5 hPa 0,0 l/m 0,0 km/h (0 Bft) NO 50 0 min 0 W/m -8,9 C -3,3 C 0,0 km/h (0 Bft)
07.03.2010 03:59 -3,4 C 66 % 1032,5 hPa 0,0 l/m 0,0 km/h (0 Bft) NO 50 0 min 0 W/m -8,8 C -3,4 C 0,0 km/h (0 Bft)
07.03.2010 04:05 -3,4 C 66 % 1033,5 hPa 0,0 l/m 0,0 km/h (0 Bft) NO 50 0 min 0 W/m -8,8 C -3,4 C 0,0 km/h (0 Bft)
07.03.2010 04:10 -3,5 C 66 % 1033,5 hPa 0,0 l/m 0,0 km/h (0 Bft) NO 50 0 min 0 W/m -8,9 C -3,5 C 0,0 km/h (0 Bft)
07.03.2010 04:14 -3,6 C 66 % 1033,5 hPa 0,0 l/m 0,0 km/h (0 Bft) NO 50 0 min 0 W/m -9,0 C -3,6 C 0,0 km/h (0 Bft)
07.03.2010 04:19 -3,7 C 66 % 1033,5 hPa 0,0 l/m 0,0 km/h (0 Bft) NO 50 0 min 0 W/m -9,1 C -3,7 C 0,0 km/h (0 Bft)
07.03.2010 04:24 -3,8 C 66 % 1033,5 hPa 0,0 l/m 0,0 km/h (0 Bft) NO 50 0 min 0 W/m -9,2 C -3,8 C 0,0 km/h (0 Bft)
07.03.2010 04:29 -3,8 C 66 % 1033,5 hPa 0,0 l/m 0,0 km/h (0 Bft) NO 50 0 min 0 W/m -9,2 C -3,8 C 0,0 km/h (0 Bft)
07.03.2010 04:34 -3,8 C 67 % 1033,5 hPa 0,0 l/m 0,0 km/h (0 Bft) NO 50 0 min 0 W/m -9,0 C -3,8 C 0,0 km/h (0 Bft)
07.03.2010 04:40 -3,9 C 66 % 1032,5 hPa 0,0 l/m 0,0 km/h (0 Bft) NO 50 0 min 0 W/m -9,3 C -3,9 C 0,0 km/h (0 Bft)
07.03.2010 04:45 -3,9 C 67 % 1033,5 hPa 0,0 l/m 0,0 km/h (0 Bft) NO 50 0 min 0 W/m -9,1 C -3,9 C 0,0 km/h (0 Bft)
07.03.2010 04:50 -3,9 C 67 % 1033,5 hPa 0,0 l/m 0,0 km/h (0 Bft) NO 50 0 min 0 W/m -9,1 C -3,9 C 0,0 km/h (0 Bft)
07.03.2010 04:54 -4,0 C 67 % 1033,5 hPa 0,0 l/m 0,0 km/h (0 Bft) NO 50 0 min 0 W/m -9,2 C -4,0 C 0,0 km/h (0 Bft)
07.03.2010 04:59 -4,0 C 67 % 1033,5 hPa 0,0 l/m 0,0 km/h (0 Bft) NO 50 0 min 0 W/m -9,2 C -4,0 C 0,0 km/h (0 Bft)
07.03.2010 05:05 -3,9 C 67 % 1033,5 hPa 0,0 l/m 0,0 km/h (0 Bft) NO 50 0 min 0 W/m -9,1 C -3,9 C 0,0 km/h (0 Bft)
07.03.2010 05:09 -4,0 C 67 % 1033,5 hPa 0,0 l/m 0,0 km/h (0 Bft) NO 50 0 min 0 W/m -9,2 C -4,0 C 0,0 km/h (0 Bft)
07.03.2010 05:14 -4,0 C 67 % 1033,5 hPa 0,0 l/m 0,0 km/h (0 Bft) NO 50 0 min 0 W/m -9,2 C -4,0 C 0,0 km/h (0 Bft)
07.03.2010 05:19 -4,0 C 67 % 1033,5 hPa 0,0 l/m 0,0 km/h (0 Bft) NO 50 0 min 0 W/m -9,2 C -4,0 C 0,0 km/h (0 Bft)
07.03.2010 05:24 -4,1 C 67 % 1033,5 hPa 0,0 l/m 0,0 km/h (0 Bft) NO 50 0 min 0 W/m -9,3 C -4,1 C 0,0 km/h (0 Bft)
07.03.2010 05:29 -4,1 C 67 % 1033,5 hPa 0,0 l/m 0,0 km/h (0 Bft) NO 50 0 min 0 W/m -9,3 C -4,1 C 0,0 km/h (0 Bft)
07.03.2010 05:35 -4,2 C 67 % 1033,5 hPa 0,0 l/m 0,0 km/h (0 Bft) NO 50 0 min 0 W/m -9,4 C -4,2 C 0,0 km/h (0 Bft)
07.03.2010 05:40 -4,2 C 67 % 1033,5 hPa 0,0 l/m 0,0 km/h (0 Bft) NO 50 0 min 0 W/m -9,4 C -4,2 C 0,0 km/h (0 Bft)
07.03.2010 05:44 -4,2 C 67 % 1033,5 hPa 0,0 l/m 0,0 km/h (0 Bft) NO 50 0 min 0 W/m -9,4 C -4,2 C 0,0 km/h (0 Bft)
07.03.2010 05:49 -4,2 C 67 % 1033,5 hPa 0,0 l/m 0,0 km/h (0 Bft) NO 50 0 min 0 W/m -9,4 C -4,2 C 0,0 km/h (0 Bft)
07.03.2010 05:54 -4,2 C 68 % 1033,5 hPa 0,0 l/m 0,0 km/h (0 Bft) NO 50 0 min 0 W/m -9,2 C -4,2 C 0,0 km/h (0 Bft)
07.03.2010 05:59 -4,2 C 68 % 1033,5 hPa 0,0 l/m 0,0 km/h (0 Bft) NO 50 0 min 0 W/m -9,2 C -4,2 C 0,0 km/h (0 Bft)
07.03.2010 06:04 -4,2 C 68 % 1033,5 hPa 0,0 l/m 0,0 km/h (0 Bft) NO 50 0 min 0 W/m -9,2 C -4,2 C 0,0 km/h (0 Bft)
07.03.2010 06:09 -4,2 C 68 % 1033,5 hPa 0,0 l/m 0,0 km/h (0 Bft) NO 50 0 min 0 W/m -9,2 C -4,2 C 0,0 km/h (0 Bft)
07.03.2010 06:14 -4,2 C 67 % 1033,5 hPa 0,0 l/m 0,0 km/h (0 Bft) NO 50 0 min 0 W/m -9,4 C -4,2 C 0,0 km/h (0 Bft)
07.03.2010 06:19 -4,3 C 67 % 1033,5 hPa 0,0 l/m 0,0 km/h (0 Bft) NO 50 0 min 0 W/m -9,5 C -4,3 C 0,0 km/h (0 Bft)
07.03.2010 06:25 -4,3 C 68 % 1033,5 hPa 0,0 l/m 0,0 km/h (0 Bft) NO 50 0 min 0 W/m -9,3 C -4,3 C 0,0 km/h (0 Bft)
07.03.2010 06:30 -4,3 C 68 % 1033,5 hPa 0,0 l/m 0,0 km/h (0 Bft) NO 50 0 min 0 W/m -9,3 C -4,3 C 0,0 km/h (0 Bft)
07.03.2010 06:35 -4,3 C 68 % 1033,5 hPa 0,0 l/m 0,0 km/h (0 Bft) NO 50 0 min 0 W/m -9,3 C -4,3 C 0,0 km/h (0 Bft)
07.03.2010 06:39 -4,4 C 68 % 1033,5 hPa 0,0 l/m 0,0 km/h (0 Bft) NO 50 0 min 0 W/m -9,4 C -4,4 C 0,0 km/h (0 Bft)
07.03.2010 06:44 -4,4 C 68 % 1033,5 hPa 0,0 l/m 0,0 km/h (0 Bft) NO 50 0 min 0 W/m -9,4 C -4,4 C 0,0 km/h (0 Bft)
07.03.2010 06:49 -4,5 C 68 % 1033,5 hPa 0,0 l/m 0,0 km/h (0 Bft) NO 50 0 min 0 W/m -9,5 C -4,5 C 0,0 km/h (0 Bft)
07.03.2010 06:54 -4,4 C 68 % 1033,5 hPa 0,0 l/m 0,0 km/h (0 Bft) NO 50 0 min 0 W/m -9,4 C -4,4 C 0,0 km/h (0 Bft)
07.03.2010 06:59 -4,5 C 68 % 1033,5 hPa 0,0 l/m 0,0 km/h (0 Bft) NO 50 0 min 0 W/m -9,5 C -4,5 C 0,0 km/h (0 Bft)
07.03.2010 07:04 -4,4 C 68 % 1033,5 hPa 0,0 l/m 0,0 km/h (0 Bft) NO 50 0 min 0 W/m -9,4 C -4,4 C 0,0 km/h (0 Bft)
07.03.2010 07:09 -4,4 C 68 % 1033,5 hPa 0,0 l/m 0,0 km/h (0 Bft) NO 50 0 min 0 W/m -9,4 C -4,4 C 0,0 km/h (0 Bft)
07.03.2010 07:14 -4,4 C 68 % 1033,5 hPa 0,0 l/m 0,0 km/h (0 Bft) NO 50 0 min 0 W/m -9,4 C -4,4 C 0,0 km/h (0 Bft)
07.03.2010 07:20 -4,4 C 68 % 1033,5 hPa 0,0 l/m 0,0 km/h (0 Bft) NO 50 0 min 0 W/m -9,4 C -4,4 C 0,0 km/h (0 Bft)
07.03.2010 07:25 -4,5 C 69 % 1033,5 hPa 0,0 l/m 4,5 km/h (1 Bft) NO 50 0 min 0 W/m -9,3 C -4,5 C 4,5 km/h (1 Bft)
07.03.2010 07:29 -4,3 C 69 % 1033,5 hPa 0,0 l/m 0,0 km/h (0 Bft) NO 50 0 min 0 W/m -9,1 C -4,3 C 0,0 km/h (0 Bft)
07.03.2010 07:34 -4,3 C 69 % 1033,5 hPa 0,0 l/m 0,0 km/h (0 Bft) NO 50 0 min 0 W/m -9,1 C -4,3 C 0,0 km/h (0 Bft)
07.03.2010 07:39 -4,3 C 68 % 1033,5 hPa 0,0 l/m 0,0 km/h (0 Bft) NO 50 0 min 0 W/m -9,3 C -4,3 C 0,0 km/h (0 Bft)
07.03.2010 07:44 -4,3 C 68 % 1033,5 hPa 0,0 l/m 0,1 km/h (0 Bft) NO 50 0 min 0 W/m -9,3 C -4,3 C 0,1 km/h (0 Bft)
07.03.2010 07:49 -4,3 C 68 % 1033,5 hPa 0,0 l/m 0,1 km/h (0 Bft) NO 50 0 min 0 W/m -9,3 C -4,3 C 0,1 km/h (0 Bft)
07.03.2010 07:55 -4,2 C 69 % 1033,5 hPa 0,0 l/m 0,4 km/h (0 Bft) NO 50 0 min 0 W/m -9,0 C -4,2 C 0,4 km/h (0 Bft)
07.03.2010 08:00 -4,2 C 69 % 1033,5 hPa 0,0 l/m 0,2 km/h (0 Bft) NO 50 0 min 0 W/m -9,0 C -4,2 C 0,2 km/h (0 Bft)
07.03.2010 08:04 -4,0 C 69 % 1033,5 hPa 0,0 l/m 0,0 km/h (0 Bft) NO 50 0 min 0 W/m -8,8 C -4,0 C 0,0 km/h (0 Bft)
07.03.2010 08:09 -3,8 C 69 % 1033,5 hPa 0,0 l/m 0,0 km/h (0 Bft) NO 50 0 min 0 W/m -8,6 C -3,8 C 0,0 km/h (0 Bft)
07.03.2010 08:15 -3,8 C 70 % 1033,5 hPa 0,0 l/m 0,0 km/h (0 Bft) NO 50 0 min 0 W/m -8,4 C -3,8 C 0,0 km/h (0 Bft)
07.03.2010 08:20 -3,5 C 70 % 1033,5 hPa 0,0 l/m 0,0 km/h (0 Bft) NO 50 0 min 0 W/m -8,2 C -3,5 C 0,0 km/h (0 Bft)
07.03.2010 08:24 -3,3 C 70 % 1033,5 hPa 0,0 l/m 0,0 km/h (0 Bft) NO 50 0 min 0 W/m -8,0 C -3,3 C 0,0 km/h (0 Bft)
07.03.2010 08:29 -3,1 C 70 % 1033,5 hPa 0,0 l/m 0,1 km/h (0 Bft) NO 50 0 min 0 W/m -7,8 C -3,1 C 0,1 km/h (0 Bft)
07.03.2010 08:34 -2,8 C 71 % 1033,5 hPa 0,0 l/m 0,0 km/h (0 Bft) NO 50 0 min 0 W/m -7,3 C -2,8 C 0,0 km/h (0 Bft)
07.03.2010 08:39 -2,6 C 71 % 1033,5 hPa 0,0 l/m 2,3 km/h (1 Bft) NO 50 0 min 0 W/m -7,1 C -2,6 C 2,3 km/h (1 Bft)
07.03.2010 08:44 -2,3 C 71 % 1033,5 hPa 0,0 l/m 3,4 km/h (1 Bft) NO 50 0 min 0 W/m -6,8 C -2,3 C 3,4 km/h (1 Bft)
07.03.2010 08:50 -2,1 C 72 % 1033,5 hPa 0,0 l/m 3,5 km/h (1 Bft) NO 50 0 min 0 W/m -6,5 C -2,1 C 3,5 km/h (1 Bft)
07.03.2010 08:55 -1,8 C 72 % 1033,5 hPa 0,0 l/m 3,7 km/h (1 Bft) NO 50 0 min 0 W/m -6,2 C -1,8 C 3,7 km/h (1 Bft)
07.03.2010 08:59 -1,4 C 73 % 1033,5 hPa 0,0 l/m 5,0 km/h (1 Bft) NO 50 0 min 0 W/m -5,6 C -1,4 C 5,0 km/h (1 Bft)
07.03.2010 09:05 -1,3 C 73 % 1033,5 hPa 0,0 l/m 4,2 km/h (1 Bft) NO 50 0 min 0 W/m -5,5 C -1,3 C 4,2 km/h (1 Bft)
07.03.2010 09:10 -0,9 C 73 % 1033,5 hPa 0,0 l/m 2,6 km/h (1 Bft) NO 50 0 min 0 W/m -5,1 C -0,9 C 2,6 km/h (1 Bft)
07.03.2010 09:14 -0,7 C 72 % 1033,5 hPa 0,0 l/m 7,4 km/h (2 Bft) NO 35 0 min 0 W/m -5,1 C -1,8 C 7,4 km/h (2 Bft)
07.03.2010 09:19 -0,5 C 72 % 1033,5 hPa 0,0 l/m 6,6 km/h (2 Bft) NW 315 0 min 0 W/m -4,9 C -0,7 C 6,6 km/h (2 Bft)
07.03.2010 09:24 -0,3 C 72 % 1033,5 hPa 0,0 l/m 4,9 km/h (1 Bft) NW 315 0 min 0 W/m -4,7 C -0,3 C 4,9 km/h (1 Bft)
07.03.2010 09:29 0,1 C 72 % 1033,5 hPa 0,0 l/m 7,8 km/h (2 Bft) NW 320 0 min 0 W/m -4,3 C -1,3 C 7,8 km/h (2 Bft)
07.03.2010 09:34 0,6 C 71 % 1033,5 hPa 0,0 l/m 10,5 km/h (2 Bft) NW 325 0 min 0 W/m -4,0 C -3,2 C 10,5 km/h (2 Bft)
07.03.2010 09:39 1,0 C 71 % 1033,5 hPa 0,0 l/m 12,9 km/h (3 Bft) NW 315 0 min 0 W/m -3,7 C -4,5 C 12,9 km/h (3 Bft)
07.03.2010 09:44 1,7 C 69 % 1033,5 hPa 0,0 l/m 12,4 km/h (2 Bft) NW 320 0 min 0 W/m -3,4 C -3,3 C 12,4 km/h (2 Bft)
07.03.2010 09:50 2,5 C 67 % 1033,5 hPa 0,0 l/m 7,8 km/h (2 Bft) NW 325 0 min 0 W/m -3,0 C 1,2 C 7,8 km/h (2 Bft)
07.03.2010 09:55 2,8 C 67 % 1033,5 hPa 0,0 l/m 11,8 km/h (2 Bft) N-NW 335 0 min 0 W/m -2,7 C -1,6 C 11,8 km/h (2 Bft)
07.03.2010 09:59 3,5 C 64 % 1033,5 hPa 0,0 l/m 8,7 km/h (2 Bft) N-NW 335 0 min 0 W/m -2,7 C 1,4 C 8,7 km/h (2 Bft)
07.03.2010 10:05 3,9 C 63 % 1033,5 hPa 0,0 l/m 12,6 km/h (3 Bft) NW 320 0 min 0 W/m -2,5 C -0,9 C 12,6 km/h (3 Bft)
07.03.2010 10:09 4,0 C 63 % 1033,5 hPa 0,0 l/m 11,3 km/h (2 Bft) N-NW 330 0 min 0 W/m -2,4 C 0,1 C 11,3 km/h (2 Bft)
07.03.2010 10:14 4,5 C 61 % 1033,5 hPa 0,0 l/m 9,3 km/h (2 Bft) NW 315 0 min 0 W/m -2,4 C 2,0 C 9,3 km/h (2 Bft)
07.03.2010 10:19 4,9 C 59 % 1033,5 hPa 0,0 l/m 10,1 km/h (2 Bft) NW 320 0 min 0 W/m -2,4 C 1,9 C 10,1 km/h (2 Bft)
07.03.2010 10:24 5,3 C 59 % 1033,5 hPa 0,0 l/m 11,4 km/h (2 Bft) N 350 0 min 0 W/m -2,0 C 1,5 C 11,4 km/h (2 Bft)
07.03.2010 10:29 5,4 C 57 % 1033,5 hPa 0,0 l/m 11,7 km/h (2 Bft) N-NW 340 0 min 0 W/m -2,4 C 1,4 C 11,7 km/h (2 Bft)
07.03.2010 10:35 5,6 C 57 % 1033,5 hPa 0,0 l/m 10,8 km/h (2 Bft) N-NW 330 0 min 0 W/m -2,2 C 2,2 C 10,8 km/h (2 Bft)
07.03.2010 10:40 5,9 C 56 % 1033,5 hPa 0,0 l/m 12,8 km/h (3 Bft) N-NW 330 0 min 0 W/m -2,2 C 1,3 C 12,8 km/h (3 Bft)
07.03.2010 10:44 6,0 C 53 % 1033,5 hPa 0,0 l/m 10,1 km/h (2 Bft) N-NW 335 0 min 0 W/m -2,8 C 3,1 C 10,1 km/h (2 Bft)
07.03.2010 10:49 6,1 C 55 % 1033,5 hPa 0,0 l/m 12,8 km/h (3 Bft) N-NW 330 0 min 0 W/m -2,2 C 1,6 C 12,8 km/h (3 Bft)
07.03.2010 10:54 6,2 C 55 % 1033,5 hPa 0,0 l/m 9,6 km/h (2 Bft) NW 320 0 min 0 W/m -2,2 C 3,7 C 9,6 km/h (2 Bft)
07.03.2010 10:59 6,4 C 54 % 1033,5 hPa 0,0 l/m 14,7 km/h (3 Bft) NW 320 0 min 0 W/m -2,2 C 0,9 C 14,7 km/h (3 Bft)
07.03.2010 11:04 6,5 C 55 % 1033,5 hPa 0,0 l/m 14,0 km/h (3 Bft) NW 315 0 min 0 W/m -1,9 C 1,4 C 14,0 km/h (3 Bft)
07.03.2010 11:09 6,8 C 53 % 1033,5 hPa 0,0 l/m 10,6 km/h (2 Bft) NW 315 0 min 0 W/m -2,1 C 3,7 C 10,6 km/h (2 Bft)
07.03.2010 11:14 6,9 C 51 % 1033,5 hPa 0,0 l/m 15,3 km/h (3 Bft) NW 325 0 min 0 W/m -2,5 C 1,2 C 15,3 km/h (3 Bft)
07.03.2010 11:19 7,1 C 52 % 1033,5 hPa 0,0 l/m 12,5 km/h (2 Bft) N-NW 330 0 min 0 W/m -2,1 C 2,9 C 12,5 km/h (2 Bft)
07.03.2010 11:25 7,1 C 50 % 1033,5 hPa 0,0 l/m 15,5 km/h (3 Bft) N-NW 330 0 min 0 W/m -2,6 C 1,4 C 15,5 km/h (3 Bft)
07.03.2010 11:30 7,1 C 47 % 1033,5 hPa 0,0 l/m 16,2 km/h (3 Bft) N-NW 340 0 min 0 W/m -3,4 C 1,1 C 16,2 km/h (3 Bft)
07.03.2010 11:34 6,9 C 46 % 1033,5 hPa 0,0 l/m 18,1 km/h (3 Bft) N 360 0 min 0 W/m -3,9 C 0,0 C 18,1 km/h (3 Bft)
07.03.2010 11:39 6,7 C 48 % 1033,5 hPa 0,0 l/m 13,2 km/h (3 Bft) N 350 0 min 0 W/m -3,5 C 2,0 C 13,2 km/h (3 Bft)
07.03.2010 11:44 6,8 C 49 % 1033,5 hPa 0,0 l/m 16,6 km/h (3 Bft) N 355 0 min 0 W/m -3,2 C 0,5 C 16,6 km/h (3 Bft)
07.03.2010 11:49 6,8 C 49 % 1033,5 hPa 0,0 l/m 15,0 km/h (3 Bft) N-NW 330 0 min 0 W/m -3,2 C 1,3 C 15,0 km/h (3 Bft)
07.03.2010 11:55 6,6 C 45 % 1033,5 hPa 0,0 l/m 18,6 km/h (3 Bft) N 350 0 min 0 W/m -4,5 C -0,6 C 18,6 km/h (3 Bft)
07.03.2010 12:00 6,1 C 47 % 1033,5 hPa 0,0 l/m 16,1 km/h (3 Bft) N 360 0 min 0 W/m -4,3 C -0,1 C 16,1 km/h (3 Bft)
07.03.2010 12:04 6,0 C 46 % 1033,5 hPa 0,0 l/m 18,6 km/h (3 Bft) N 350 0 min 0 W/m -4,7 C -1,3 C 18,6 km/h (3 Bft)
07.03.2010 12:10 5,6 C 49 % 1033,5 hPa 0,0 l/m 17,5 km/h (3 Bft) N 350 0 min 0 W/m -4,3 C -1,4 C 17,5 km/h (3 Bft)
07.03.2010 12:15 5,6 C 48 % 1033,5 hPa 0,0 l/m 20,3 km/h (4 Bft) N 5 0 min 0 W/m -4,5 C -2,5 C 20,3 km/h (4 Bft)
07.03.2010 12:19 6,0 C 48 % 1033,5 hPa 0,0 l/m 19,8 km/h (3 Bft) N-NW 340 0 min 0 W/m -4,2 C -1,8 C 19,8 km/h (3 Bft)
07.03.2010 12:24 6,0 C 46 % 1033,5 hPa 0,0 l/m 17,1 km/h (3 Bft) N 350 0 min 0 W/m -4,7 C -0,7 C 17,1 km/h (3 Bft)
07.03.2010 12:29 6,1 C 49 % 1033,5 hPa 0,0 l/m 19,8 km/h (3 Bft) NW 320 0 min 0 W/m -3,8 C -1,7 C 19,8 km/h (3 Bft)
07.03.2010 12:34 6,2 C 49 % 1033,5 hPa 0,0 l/m 13,6 km/h (3 Bft) NW 315 0 min 0 W/m -3,7 C 1,2 C 13,6 km/h (3 Bft)
07.03.2010 12:39 6,3 C 48 % 1033,5 hPa 0,0 l/m 19,0 km/h (3 Bft) N-NW 340 0 min 0 W/m -3,9 C -1,1 C 19,0 km/h (3 Bft)
07.03.2010 12:45 6,4 C 49 % 1033,5 hPa 0,0 l/m 12,6 km/h (3 Bft) N-NW 345 0 min 0 W/m -3,5 C 2,0 C 12,6 km/h (3 Bft)
07.03.2010 12:50 6,4 C 48 % 1033,5 hPa 0,0 l/m 19,3 km/h (3 Bft) N-NW 330 0 min 0 W/m -3,8 C -1,1 C 19,3 km/h (3 Bft)
07.03.2010 12:54 6,6 C 49 % 1033,5 hPa 0,3 l/m 17,4 km/h (3 Bft) N-NW 330 0 min 0 W/m -3,3 C -0,1 C 17,4 km/h (3 Bft)
07.03.2010 12:59 6,9 C 48 % 1033,5 hPa 0,0 l/m 12,6 km/h (3 Bft) NW 315 0 min 0 W/m -3,3 C 2,6 C 12,6 km/h (3 Bft)
07.03.2010 13:05 7,1 C 47 % 1033,5 hPa 0,0 l/m 22,0 km/h (4 Bft) NW 320 0 min 0 W/m -3,4 C -1,2 C 22,0 km/h (4 Bft)
07.03.2010 13:09 7,1 C 47 % 1033,5 hPa 0,0 l/m 14,8 km/h (3 Bft) NW 325 0 min 0 W/m -3,4 C 1,7 C 14,8 km/h (3 Bft)
07.03.2010 13:14 6,9 C 46 % 1032,5 hPa 0,0 l/m 19,6 km/h (3 Bft) NW 320 0 min 0 W/m -3,9 C -0,6 C 19,6 km/h (3 Bft)
07.03.2010 13:19 6,6 C 47 % 1032,5 hPa 0,0 l/m 24,6 km/h (4 Bft) NW 325 0 min 0 W/m -3,9 C -2,7 C 24,6 km/h (4 Bft)
07.03.2010 13:25 6,5 C 48 % 1032,5 hPa 0,0 l/m 15,9 km/h (3 Bft) NW 320 0 min 0 W/m -3,7 C 0,5 C 15,9 km/h (3 Bft)
07.03.2010 13:30 6,4 C 48 % 1032,5 hPa 0,0 l/m 19,5 km/h (3 Bft) NW 325 0 min 0 W/m -3,8 C -1,2 C 19,5 km/h (3 Bft)
07.03.2010 13:35 6,0 C 48 % 1032,5 hPa 0,0 l/m 22,4 km/h (4 Bft) N-NW 335 0 min 0 W/m -4,2 C -2,7 C 22,4 km/h (4 Bft)
07.03.2010 13:40 5,6 C 48 % 1032,5 hPa 0,0 l/m 24,1 km/h (4 Bft) N-NW 330 0 min 0 W/m -4,5 C -3,8 C 24,1 km/h (4 Bft)
07.03.2010 13:45 5,6 C 49 % 1032,5 hPa 0,3 l/m 21,8 km/h (4 Bft) NW 325 0 min 0 W/m -4,3 C -3,1 C 21,8 km/h (4 Bft)
07.03.2010 13:50 5,3 C 50 % 1032,5 hPa 0,0 l/m 20,1 km/h (4 Bft) NW 320 0 min 0 W/m -4,3 C -2,8 C 20,1 km/h (4 Bft)
07.03.2010 13:54 5,2 C 50 % 1032,5 hPa 0,0 l/m 25,1 km/h (4 Bft) NW 325 0 min 0 W/m -4,4 C -4,7 C 25,1 km/h (4 Bft)
07.03.2010 13:59 5,2 C 50 % 1032,5 hPa 0,0 l/m 18,6 km/h (3 Bft) N-NW 340 0 min 0 W/m -4,4 C -2,3 C 18,6 km/h (3 Bft)
07.03.2010 14:05 5,1 C 51 % 1032,5 hPa 0,0 l/m 21,6 km/h (4 Bft) NW 320 0 min 0 W/m -4,2 C -3,7 C 21,6 km/h (4 Bft)
07.03.2010 14:09 4,9 C 51 % 1032,5 hPa 0,0 l/m 19,0 km/h (3 Bft) NW 320 0 min 0 W/m -4,4 C -2,9 C 19,0 km/h (3 Bft)
07.03.2010 14:14 4,8 C 51 % 1032,5 hPa 0,0 l/m 22,0 km/h (4 Bft) NW 315 0 min 0 W/m -4,5 C -4,2 C 22,0 km/h (4 Bft)
07.03.2010 14:19 4,9 C 51 % 1032,5 hPa 0,0 l/m 21,1 km/h (4 Bft) NW 310 0 min 0 W/m -4,4 C -3,7 C 21,1 km/h (4 Bft)
07.03.2010 14:24 4,9 C 52 % 1032,5 hPa 0,0 l/m 23,0 km/h (4 Bft) N-NW 330 0 min 0 W/m -4,1 C -4,4 C 23,0 km/h (4 Bft)
07.03.2010 14:30 4,9 C 52 % 1032,5 hPa 0,0 l/m 18,4 km/h (3 Bft) NW 325 0 min 0 W/m -4,1 C -2,6 C 18,4 km/h (3 Bft)
07.03.2010 14:35 5,1 C 52 % 1032,5 hPa 0,0 l/m 20,0 km/h (4 Bft) NW 315 0 min 0 W/m -3,9 C -3,0 C 20,0 km/h (4 Bft)
07.03.2010 14:40 5,2 C 52 % 1032,5 hPa 0,0 l/m 23,1 km/h (4 Bft) N-NW 335 0 min 0 W/m -3,8 C -4,0 C 23,1 km/h (4 Bft)
07.03.2010 14:44 4,9 C 52 % 1032,5 hPa 0,0 l/m 20,2 km/h (4 Bft) NW 325 0 min 0 W/m -4,1 C -3,4 C 20,2 km/h (4 Bft)
07.03.2010 14:49 4,7 C 53 % 1032,5 hPa 0,0 l/m 23,6 km/h (4 Bft) NW 320 0 min 0 W/m -4,0 C -4,9 C 23,6 km/h (4 Bft)
07.03.2010 14:54 4,7 C 54 % 1031,5 hPa 0,0 l/m 20,7 km/h (4 Bft) NW 320 0 min 0 W/m -3,8 C -3,8 C 20,7 km/h (4 Bft)
07.03.2010 15:00 4,7 C 54 % 1032,5 hPa 0,0 l/m 20,0 km/h (4 Bft) NW 315 0 min 0 W/m -3,8 C -3,6 C 20,0 km/h (4 Bft)
07.03.2010 15:04 4,7 C 54 % 1032,5 hPa 0,3 l/m 21,4 km/h (4 Bft) NW 325 0 min 0 W/m -3,8 C -4,1 C 21,4 km/h (4 Bft)
07.03.2010 15:09 4,6 C 54 % 1031,5 hPa 0,0 l/m 22,4 km/h (4 Bft) NW 315 0 min 0 W/m -3,9 C -4,6 C 22,4 km/h (4 Bft)
07.03.2010 15:15 4,6 C 54 % 1031,5 hPa 0,0 l/m 21,6 km/h (4 Bft) NW 310 0 min 0 W/m -3,9 C -4,3 C 21,6 km/h (4 Bft)
07.03.2010 15:20 4,7 C 54 % 1031,5 hPa 0,0 l/m 17,8 km/h (3 Bft) NW 320 0 min 0 W/m -3,8 C -2,6 C 17,8 km/h (3 Bft)
07.03.2010 15:25 4,7 C 55 % 1031,5 hPa 0,0 l/m 19,8 km/h (3 Bft) NW 320 0 min 0 W/m -3,6 C -3,5 C 19,8 km/h (3 Bft)
07.03.2010 15:29 4,7 C 55 % 1031,5 hPa 0,0 l/m 21,3 km/h (4 Bft) NW 320 0 min 0 W/m -3,6 C -4,1 C 21,3 km/h (4 Bft)
07.03.2010 15:34 4,7 C 55 % 1031,5 hPa 0,0 l/m 21,2 km/h (4 Bft) NW 325 0 min 0 W/m -3,6 C -4,0 C 21,2 km/h (4 Bft)
07.03.2010 15:39 4,6 C 55 % 1031,5 hPa 0,0 l/m 21,2 km/h (4 Bft) NW 325 0 min 0 W/m -3,6 C -4,2 C 21,2 km/h (4 Bft)
07.03.2010 15:45 4,5 C 55 % 1031,5 hPa 0,0 l/m 16,9 km/h (3 Bft) NW 315 0 min 0 W/m -3,7 C -2,5 C 16,9 km/h (3 Bft)
07.03.2010 15:50 4,4 C 56 % 1031,5 hPa 0,0 l/m 19,0 km/h (3 Bft) NW 325 0 min 0 W/m -3,6 C -3,5 C 19,0 km/h (3 Bft)
07.03.2010 15:55 4,4 C 56 % 1031,5 hPa 0,0 l/m 20,0 km/h (4 Bft) NW 315 0 min 0 W/m -3,6 C -3,9 C 20,0 km/h (4 Bft)
07.03.2010 15:59 4,3 C 56 % 1031,5 hPa 0,0 l/m 22,6 km/h (4 Bft) NW 325 0 min 0 W/m -3,7 C -5,1 C 22,6 km/h (4 Bft)
07.03.2010 16:04 4,3 C 57 % 1031,5 hPa 0,0 l/m 15,9 km/h (3 Bft) NW 325 0 min 0 W/m -3,5 C -2,2 C 15,9 km/h (3 Bft)
07.03.2010 16:09 4,3 C 57 % 1031,5 hPa 0,0 l/m 22,4 km/h (4 Bft) NW 310 0 min 0 W/m -3,5 C -5,0 C 22,4 km/h (4 Bft)
07.03.2010 16:14 4,3 C 57 % 1031,5 hPa 0,0 l/m 17,1 km/h (3 Bft) NW 315 0 min 0 W/m -3,5 C -2,8 C 17,1 km/h (3 Bft)
07.03.2010 16:19 4,3 C 57 % 1031,5 hPa 0,0 l/m 22,0 km/h (4 Bft) NW 305 0 min 0 W/m -3,5 C -4,9 C 22,0 km/h (4 Bft)
07.03.2010 16:25 4,2 C 58 % 1031,5 hPa 0,0 l/m 20,0 km/h (4 Bft) NW 315 0 min 0 W/m -3,3 C -4,2 C 20,0 km/h (4 Bft)
07.03.2010 16:30 4,1 C 58 % 1031,5 hPa 0,0 l/m 20,0 km/h (4 Bft) NW 315 0 min 0 W/m -3,4 C -4,3 C 20,0 km/h (4 Bft)
07.03.2010 16:34 4,0 C 58 % 1031,5 hPa 0,0 l/m 20,5 km/h (4 Bft) NW 320 0 min 0 W/m -3,5 C -4,7 C 20,5 km/h (4 Bft)
07.03.2010 16:39 3,9 C 59 % 1031,5 hPa 0,0 l/m 18,4 km/h (3 Bft) NW 315 0 min 0 W/m -3,4 C -3,9 C 18,4 km/h (3 Bft)
07.03.2010 16:44 3,9 C 59 % 1031,5 hPa 0,0 l/m 17,5 km/h (3 Bft) NW 325 0 min 0 W/m -3,4 C -3,5 C 17,5 km/h (3 Bft)
07.03.2010 16:50 3,9 C 60 % 1031,5 hPa 0,0 l/m 18,1 km/h (3 Bft) NW 305 0 min 0 W/m -3,1 C -3,8 C 18,1 km/h (3 Bft)
07.03.2010 16:55 3,9 C 60 % 1031,5 hPa 0,0 l/m 20,1 km/h (4 Bft) NW 320 0 min 0 W/m -3,1 C -4,6 C 20,1 km/h (4 Bft)
07.03.2010 17:00 3,9 C 61 % 1031,5 hPa 0,0 l/m 18,5 km/h (3 Bft) NW 320 0 min 0 W/m -2,9 C -4,0 C 18,5 km/h (3 Bft)
07.03.2010 17:05 3,6 C 61 % 1031,5 hPa 0,0 l/m 21,1 km/h (4 Bft) N-NW 340 0 min 0 W/m -3,2 C -5,4 C 21,1 km/h (4 Bft)
07.03.2010 17:09 3,5 C 62 % 1031,5 hPa 0,0 l/m 23,1 km/h (4 Bft) N-NW 330 0 min 0 W/m -3,1 C -6,3 C 23,1 km/h (4 Bft)
07.03.2010 17:14 3,3 C 63 % 1031,5 hPa 0,0 l/m 18,3 km/h (3 Bft) NW 320 0 min 0 W/m -3,1 C -4,6 C 18,3 km/h (3 Bft)
07.03.2010 17:19 3,2 C 64 % 1031,5 hPa 0,0 l/m 15,8 km/h (3 Bft) N-NW 340 0 min 0 W/m -2,9 C -3,5 C 15,8 km/h (3 Bft)
07.03.2010 17:25 3,1 C 64 % 1031,5 hPa 0,0 l/m 15,6 km/h (3 Bft) NW 325 0 min 0 W/m -3,0 C -3,5 C 15,6 km/h (3 Bft)
07.03.2010 17:30 3,1 C 65 % 1031,5 hPa 0,0 l/m 19,3 km/h (3 Bft) NW 315 0 min 0 W/m -2,8 C -5,3 C 19,3 km/h (3 Bft)
07.03.2010 17:35 3,1 C 65 % 1030,5 hPa 0,0 l/m 19,4 km/h (3 Bft) N-NW 335 0 min 0 W/m -2,8 C -5,4 C 19,4 km/h (3 Bft)
07.03.2010 17:39 3,1 C 66 % 1030,5 hPa 0,0 l/m 19,0 km/h (3 Bft) N-NW 330 0 min 0 W/m -2,6 C -5,2 C 19,0 km/h (3 Bft)
07.03.2010 17:44 2,9 C 66 % 1030,5 hPa 0,0 l/m 19,8 km/h (3 Bft) N-NW 330 0 min 0 W/m -2,8 C -5,8 C 19,8 km/h (3 Bft)
07.03.2010 17:49 2,9 C 66 % 1030,5 hPa 0,0 l/m 13,6 km/h (3 Bft) NW 320 0 min 0 W/m -2,8 C -2,7 C 13,6 km/h (3 Bft)
07.03.2010 17:55 2,9 C 66 % 1030,5 hPa 0,0 l/m 20,9 km/h (4 Bft) N-NW 340 0 min 0 W/m -2,8 C -6,3 C 20,9 km/h (4 Bft)
07.03.2010 18:00 3,0 C 66 % 1030,5 hPa 0,0 l/m 14,7 km/h (3 Bft) N-NW 330 0 min 0 W/m -2,7 C -3,2 C 14,7 km/h (3 Bft)
07.03.2010 18:05 3,0 C 66 % 1030,5 hPa 0,0 l/m 22,3 km/h (4 Bft) NW 320 0 min 0 W/m -2,7 C -6,7 C 22,3 km/h (4 Bft)
07.03.2010 18:10 3,0 C 66 % 1030,5 hPa 0,0 l/m 15,6 km/h (3 Bft) NW 325 0 min 0 W/m -2,7 C -3,7 C 15,6 km/h (3 Bft)
07.03.2010 18:15 3,0 C 67 % 1030,5 hPa 0,0 l/m 15,1 km/h (3 Bft) N-NW 330 0 min 0 W/m -2,5 C -3,4 C 15,1 km/h (3 Bft)
07.03.2010 18:19 2,9 C 67 % 1030,5 hPa 0,0 l/m 11,9 km/h (2 Bft) NW 315 0 min 0 W/m -2,6 C -1,6 C 11,9 km/h (2 Bft)
07.03.2010 18:24 2,9 C 67 % 1030,5 hPa 0,0 l/m 20,6 km/h (4 Bft) NW 315 0 min 0 W/m -2,6 C -6,1 C 20,6 km/h (4 Bft)
07.03.2010 18:29 2,9 C 68 % 1030,5 hPa 0,0 l/m 21,3 km/h (4 Bft) N-NW 330 0 min 0 W/m -2,4 C -6,4 C 21,3 km/h (4 Bft)
07.03.2010 18:35 2,8 C 69 % 1030,5 hPa 0,0 l/m 20,4 km/h (4 Bft) NW 325 0 min 0 W/m -2,3 C -6,2 C 20,4 km/h (4 Bft)
07.03.2010 18:40 2,8 C 69 % 1030,5 hPa 0,0 l/m 20,8 km/h (4 Bft) NW 315 0 min 0 W/m -2,3 C -6,3 C 20,8 km/h (4 Bft)
07.03.2010 18:44 2,7 C 70 % 1030,5 hPa 0,0 l/m 18,6 km/h (3 Bft) N-NW 335 0 min 0 W/m -2,2 C -5,5 C 18,6 km/h (3 Bft)
07.03.2010 18:49 2,7 C 70 % 1030,5 hPa 0,0 l/m 16,1 km/h (3 Bft) NW 320 0 min 0 W/m -2,2 C -4,3 C 16,1 km/h (3 Bft)
07.03.2010 18:54 2,7 C 70 % 1030,5 hPa 0,0 l/m 14,4 km/h (3 Bft) NW 325 0 min 0 W/m -2,2 C -3,4 C 14,4 km/h (3 Bft)
07.03.2010 19:00 2,7 C 70 % 1030,5 hPa 0,0 l/m 19,3 km/h (3 Bft) NW 315 0 min 0 W/m -2,2 C -5,8 C 19,3 km/h (3 Bft)
07.03.2010 19:04 2,7 C 69 % 1030,5 hPa 0,0 l/m 17,6 km/h (3 Bft) NW 320 0 min 0 W/m -2,4 C -5,1 C 17,6 km/h (3 Bft)
07.03.2010 19:10 2,7 C 70 % 1030,5 hPa 0,0 l/m 15,2 km/h (3 Bft) NW 320 0 min 0 W/m -2,2 C -3,8 C 15,2 km/h (3 Bft)
07.03.2010 19:15 2,7 C 70 % 1030,5 hPa 0,0 l/m 17,0 km/h (3 Bft) N-NW 330 0 min 0 W/m -2,2 C -4,8 C 17,0 km/h (3 Bft)
07.03.2010 19:20 2,7 C 71 % 1030,5 hPa 0,0 l/m 20,2 km/h (4 Bft) NW 320 0 min 0 W/m -2,0 C -6,2 C 20,2 km/h (4 Bft)
07.03.2010 19:24 2,7 C 71 % 1030,5 hPa 0,0 l/m 16,3 km/h (3 Bft) NW 315 0 min 0 W/m -2,0 C -4,4 C 16,3 km/h (3 Bft)
07.03.2010 19:29 2,7 C 71 % 1030,5 hPa 0,0 l/m 20,6 km/h (4 Bft) N-NW 330 0 min 0 W/m -2,0 C -6,4 C 20,6 km/h (4 Bft)
07.03.2010 19:34 2,7 C 72 % 1030,5 hPa 0,0 l/m 23,3 km/h (4 Bft) NW 320 0 min 0 W/m -1,8 C -7,5 C 23,3 km/h (4 Bft)
07.03.2010 19:40 2,7 C 72 % 1029,5 hPa 0,0 l/m 11,8 km/h (2 Bft) NW 325 0 min 0 W/m -1,8 C -1,8 C 11,8 km/h (2 Bft)
07.03.2010 19:45 2,6 C 72 % 1029,5 hPa 0,0 l/m 17,4 km/h (3 Bft) N-NW 340 0 min 0 W/m -1,9 C -5,1 C 17,4 km/h (3 Bft)
07.03.2010 19:49 2,5 C 73 % 1029,5 hPa 0,0 l/m 19,4 km/h (3 Bft) NW 320 0 min 0 W/m -1,8 C -6,1 C 19,4 km/h (3 Bft)
07.03.2010 19:54 2,5 C 73 % 1029,5 hPa 0,0 l/m 20,2 km/h (4 Bft) N-NW 330 0 min 0 W/m -1,8 C -6,5 C 20,2 km/h (4 Bft)
07.03.2010 19:59 2,5 C 74 % 1029,5 hPa 0,0 l/m 15,1 km/h (3 Bft) N-NW 335 0 min 0 W/m -1,7 C -4,0 C 15,1 km/h (3 Bft)
07.03.2010 20:04 2,5 C 74 % 1029,5 hPa 0,0 l/m 14,7 km/h (3 Bft) N-NW 330 0 min 0 W/m -1,7 C -3,8 C 14,7 km/h (3 Bft)
07.03.2010 20:09 2,5 C 75 % 1029,5 hPa 0,0 l/m 16,6 km/h (3 Bft) NW 320 0 min 0 W/m -1,5 C -4,8 C 16,6 km/h (3 Bft)
07.03.2010 20:14 2,5 C 75 % 1029,5 hPa 0,0 l/m 10,6 km/h (2 Bft) NW 315 0 min 0 W/m -1,5 C -1,1 C 10,6 km/h (2 Bft)
07.03.2010 20:20 2,6 C 75 % 1029,5 hPa 0,0 l/m 17,5 km/h (3 Bft) N-NW 335 0 min 0 W/m -1,4 C -5,1 C 17,5 km/h (3 Bft)
07.03.2010 20:25 2,6 C 76 % 1029,5 hPa 0,0 l/m 15,1 km/h (3 Bft) NW 325 0 min 0 W/m -1,2 C -3,9 C 15,1 km/h (3 Bft)
07.03.2010 20:29 2,5 C 76 % 1029,5 hPa 0,0 l/m 13,1 km/h (3 Bft) NW 320 0 min 0 W/m -1,3 C -2,8 C 13,1 km/h (3 Bft)
07.03.2010 20:34 2,5 C 75 % 1029,5 hPa 0,0 l/m 16,2 km/h (3 Bft) NW 320 0 min 0 W/m -1,5 C -4,6 C 16,2 km/h (3 Bft)
07.03.2010 20:39 2,5 C 76 % 1029,5 hPa 0,0 l/m 17,1 km/h (3 Bft) NW 315 0 min 0 W/m -1,3 C -5,1 C 17,1 km/h (3 Bft)
07.03.2010 20:45 2,5 C 76 % 1029,5 hPa 0,0 l/m 16,8 km/h (3 Bft) NW 310 0 min 0 W/m -1,3 C -4,9 C 16,8 km/h (3 Bft)
07.03.2010 20:50 2,5 C 76 % 1029,5 hPa 0,0 l/m 14,9 km/h (3 Bft) NW 315 0 min 0 W/m -1,3 C -3,9 C 14,9 km/h (3 Bft)
07.03.2010 20:55 2,5 C 77 % 1029,5 hPa 0,0 l/m 15,1 km/h (3 Bft) NW 315 0 min 0 W/m -1,1 C -4,0 C 15,1 km/h (3 Bft)
07.03.2010 20:59 2,5 C 77 % 1029,5 hPa 0,0 l/m 11,6 km/h (2 Bft) N-NW 330 0 min 0 W/m -1,1 C -1,9 C 11,6 km/h (2 Bft)
07.03.2010 21:05 2,5 C 77 % 1029,5 hPa 0,0 l/m 17,8 km/h (3 Bft) NW 320 0 min 0 W/m -1,1 C -5,4 C 17,8 km/h (3 Bft)
07.03.2010 21:09 2,5 C 77 % 1029,5 hPa 0,0 l/m 16,0 km/h (3 Bft) NW 320 0 min 0 W/m -1,1 C -4,5 C 16,0 km/h (3 Bft)
07.03.2010 21:14 2,5 C 77 % 1029,5 hPa 0,0 l/m 16,3 km/h (3 Bft) NW 325 0 min 0 W/m -1,1 C -4,7 C 16,3 km/h (3 Bft)
07.03.2010 21:19 2,4 C 77 % 1028,5 hPa 0,0 l/m 16,6 km/h (3 Bft) NW 325 0 min 0 W/m -1,2 C -4,9 C 16,6 km/h (3 Bft)
07.03.2010 21:24 2,4 C 77 % 1028,5 hPa 0,0 l/m 14,6 km/h (3 Bft) W-NW 300 0 min 0 W/m -1,2 C -3,8 C 14,6 km/h (3 Bft)
07.03.2010 21:29 2,4 C 78 % 1028,5 hPa 0,0 l/m 14,9 km/h (3 Bft) NW 315 0 min 0 W/m -1,0 C -4,0 C 14,9 km/h (3 Bft)
07.03.2010 21:35 2,4 C 78 % 1028,5 hPa 0,0 l/m 15,4 km/h (3 Bft) NW 320 0 min 0 W/m -1,0 C -4,3 C 15,4 km/h (3 Bft)
07.03.2010 21:40 2,5 C 78 % 1028,5 hPa 0,0 l/m 17,1 km/h (3 Bft) NW 320 0 min 0 W/m -0,9 C -5,1 C 17,1 km/h (3 Bft)
07.03.2010 21:45 2,5 C 78 % 1028,5 hPa 0,3 l/m 18,4 km/h (3 Bft) NW 320 0 min 0 W/m -0,9 C -5,7 C 18,4 km/h (3 Bft)
07.03.2010 21:49 2,5 C 78 % 1028,5 hPa 0,0 l/m 17,4 km/h (3 Bft) NW 320 0 min 0 W/m -0,9 C -5,2 C 17,4 km/h (3 Bft)
07.03.2010 21:54 2,5 C 79 % 1028,5 hPa 0,0 l/m 18,0 km/h (3 Bft) NW 315 0 min 0 W/m -0,8 C -5,5 C 18,0 km/h (3 Bft)
07.03.2010 21:59 2,4 C 79 % 1028,5 hPa 0,0 l/m 15,3 km/h (3 Bft) NW 325 0 min 0 W/m -0,9 C -4,2 C 15,3 km/h (3 Bft)
07.03.2010 22:04 2,4 C 79 % 1028,5 hPa 0,0 l/m 15,3 km/h (3 Bft) NW 315 0 min 0 W/m -0,9 C -4,2 C 15,3 km/h (3 Bft)
07.03.2010 22:09 2,3 C 79 % 1028,5 hPa 0,0 l/m 12,4 km/h (2 Bft) N-NW 330 0 min 0 W/m -1,0 C -2,6 C 12,4 km/h (2 Bft)
07.03.2010 22:15 2,3 C 79 % 1028,5 hPa 0,0 l/m 10,2 km/h (2 Bft) N-NW 340 0 min 0 W/m -1,0 C -1,1 C 10,2 km/h (2 Bft)
07.03.2010 22:20 2,2 C 79 % 1028,5 hPa 0,0 l/m 12,0 km/h (2 Bft) N 355 0 min 0 W/m -1,1 C -2,5 C 12,0 km/h (2 Bft)
07.03.2010 22:25 2,1 C 80 % 1028,5 hPa 0,0 l/m 15,3 km/h (3 Bft) N-NW 330 0 min 0 W/m -1,0 C -4,6 C 15,3 km/h (3 Bft)
07.03.2010 22:29 2,1 C 80 % 1028,5 hPa 0,0 l/m 12,0 km/h (2 Bft) NW 325 0 min 0 W/m -1,0 C -2,6 C 12,0 km/h (2 Bft)
07.03.2010 22:34 2,2 C 80 % 1028,5 hPa 0,0 l/m 8,5 km/h (2 Bft) NW 320 0 min 0 W/m -0,9 C 0,2 C 8,5 km/h (2 Bft)
07.03.2010 22:40 2,2 C 80 % 1028,5 hPa 0,0 l/m 6,8 km/h (2 Bft) NW 320 0 min 0 W/m -0,9 C 1,8 C 6,8 km/h (2 Bft)
07.03.2010 22:45 2,2 C 80 % 1028,5 hPa 0,0 l/m 2,7 km/h (1 Bft) NW 310 0 min 0 W/m -0,9 C 2,2 C 2,7 km/h (1 Bft)
07.03.2010 22:49 2,3 C 80 % 1028,5 hPa 0,0 l/m 14,6 km/h (3 Bft) N-NW 340 0 min 0 W/m -0,8 C -4,0 C 14,6 km/h (3 Bft)
07.03.2010 22:54 2,2 C 81 % 1028,5 hPa 0,0 l/m 13,5 km/h (3 Bft) N-NW 345 0 min 0 W/m -0,7 C -3,4 C 13,5 km/h (3 Bft)
07.03.2010 22:59 2,2 C 81 % 1028,5 hPa 0,0 l/m 11,4 km/h (2 Bft) N-NW 340 0 min 0 W/m -0,7 C -2,1 C 11,4 km/h (2 Bft)
07.03.2010 23:04 2,1 C 82 % 1028,5 hPa 0,3 l/m 10,3 km/h (2 Bft) N 355 0 min 0 W/m -0,6 C -1,4 C 10,3 km/h (2 Bft)
07.03.2010 23:09 2,1 C 82 % 1028,5 hPa 0,0 l/m 13,8 km/h (3 Bft) N 350 0 min 0 W/m -0,6 C -3,7 C 13,8 km/h (3 Bft)
07.03.2010 23:14 2,2 C 83 % 1028,5 hPa 0,0 l/m 9,8 km/h (2 Bft) N 355 0 min 0 W/m -0,4 C -0,9 C 9,8 km/h (2 Bft)
07.03.2010 23:20 2,2 C 83 % 1028,5 hPa 0,0 l/m 12,9 km/h (3 Bft) N 360 0 min 0 W/m -0,4 C -3,1 C 12,9 km/h (3 Bft)
07.03.2010 23:25 2,3 C 83 % 1028,5 hPa 0,0 l/m 10,6 km/h (2 Bft) N 355 0 min 0 W/m -0,3 C -1,4 C 10,6 km/h (2 Bft)
07.03.2010 23:29 2,4 C 83 % 1028,5 hPa 0,0 l/m 14,6 km/h (3 Bft) N 355 0 min 0 W/m -0,2 C -3,8 C 14,6 km/h (3 Bft)
07.03.2010 23:34 2,4 C 83 % 1028,5 hPa 0,0 l/m 11,8 km/h (2 Bft) N 10 0 min 0 W/m -0,2 C -2,1 C 11,8 km/h (2 Bft)
07.03.2010 23:39 2,4 C 83 % 1028,5 hPa 0,0 l/m 10,3 km/h (2 Bft) N 10 0 min 0 W/m -0,2 C -1,0 C 10,3 km/h (2 Bft)
07.03.2010 23:45 2,4 C 84 % 1028,5 hPa 0,0 l/m 14,0 km/h (3 Bft) N-NO 15 0 min 0 W/m -0,0 C -3,5 C 14,0 km/h (3 Bft)
07.03.2010 23:50 2,4 C 85 % 1028,5 hPa 0,0 l/m 14,9 km/h (3 Bft) N-NO 30 0 min 0 W/m 0,1 C -4,0 C 14,9 km/h (3 Bft)
07.03.2010 23:54 2,4 C 84 % 1028,5 hPa 0,0 l/m 15,1 km/h (3 Bft) N-NO 20 0 min 0 W/m -0,0 C -4,1 C 15,1 km/h (3 Bft)
07.03.2010 23:59 2,4 C 84 % 1028,5 hPa 0,0 l/m 9,5 km/h (2 Bft) N-NO 15 0 min 0 W/m -0,0 C -0,4 C 9,5 km/h (2 Bft)
_ Min-Zeit 06:49 11:55 21:19 - 00:44 - - - - 06:49 19:34 00:44
Minimum _ -4,5 C 45 % 1028,5 hPa - 0,0 km/h (0 Bft) - - - - -9,5 C -7,5 C 0,0 km/h (0 Bft)
_ Max-Zeit 11:19 23:50 01:54 12:54 13:54 - - 00:04 00:04 23:50 11:09 13:54
Maximum _ 7,1 C 85 % 1033,5 hPa 0,3 l/m 25,1 km/h
NW (4 Bft)
- - 0 min 0 W/m 0,1 C 3,7 C 25,1 km/h
N-NW (4 Bft)
Durchschnitt _ 1,2 C 65 % 1032,0 hPa #1,5 l/m 10,2 km/h (2 Bft) NW - #0 min. 0 W/m -4,8 C -2,8 C 10,2 km/h (2 Bft)
copyright by Holger Just